Time,TemperatureF,DewpointF,PressureIn,WindDirection,WindDirectionDegrees,WindSpeedMPH,WindSpeedGustMPH,Humidity,HourlyPrecipIn,Conditions,Clouds,dailyrainin,SoftwareType,DateUTC
2013-03-03 00:01:00,33.1,24.4,30.09,NE,42,6.0,12.0,70,0.00,RA,,0.00,WeatherDisplay:10.37,2013-03-03 05:01:00,
2013-03-03 00:31:00,32.6,24.9,30.10,NE,41,3.0,10.0,73,0.00,OVC,,0.00,WeatherDisplay:10.37,2013-03-03 05:31:00,
2013-03-03 00:40:00,32.5,25.2,30.10,NE,43,3.0,8.0,74,0.00,OVC,,0.00,WeatherDisplay:10.37,2013-03-03 05:40:00,
2013-03-03 00:50:00,32.5,25.5,30.10,NE,45,5.0,8.0,75,0.00,OVC,,0.00,WeatherDisplay:10.37,2013-03-03 05:50:00,
2013-03-03 01:01:00,32.4,25.4,30.10,NE,50,5.0,10.0,75,0.00,OVC,,0.00,WeatherDisplay:10.37,2013-03-03 06:01:00,
2013-03-03 01:10:00,32.3,25.0,30.10,NE,45,2.0,8.0,74,0.00,OVC,,0.00,WeatherDisplay:10.37,2013-03-03 06:10:00,
2013-03-03 01:20:00,32.3,23.9,30.10,NE,51,5.0,10.0,71,0.00,OVC,,0.00,WeatherDisplay:10.37,2013-03-03 06:20:00,
2013-03-03 01:31:00,32.2,23.5,30.10,NE,43,6.0,12.0,70,0.00,OVC,,0.00,WeatherDisplay:10.37,2013-03-03 06:31:00,
2013-03-03 01:40:00,32.1,23.1,30.10,NE,47,5.0,12.0,69,0.00,OVC,,0.00,WeatherDisplay:10.37,2013-03-03 06:40:00,
2013-03-03 01:50:00,32.0,23.0,30.10,NE,42,5.0,8.0,69,0.00,OVC,,0.00,WeatherDisplay:10.37,2013-03-03 06:50:00,
2013-03-03 02:01:00,31.9,23.2,30.10,NNE,26,5.0,13.0,70,0.00,OVC,,0.00,WeatherDisplay:10.37,2013-03-03 07:01:00,
2013-03-03 02:10:00,31.7,23.1,30.10,NE,38,3.0,8.0,70,0.00,OVC,,0.00,WeatherDisplay:10.37,2013-03-03 07:10:00,
2013-03-03 02:20:00,31.7,23.4,30.10,NNE,28,0.0,5.0,71,0.00,OVC,,0.00,WeatherDisplay:10.37,2013-03-03 07:20:00,
2013-03-03 02:31:00,31.5,23.5,30.10,NE,55,1.0,6.0,72,0.00,OVC,,0.00,WeatherDisplay:10.37,2013-03-03 07:31:00,
2013-03-03 02:40:00,31.5,23.8,30.10,NE,41,2.0,7.0,73,0.00,OVC,,0.00,WeatherDisplay:10.37,2013-03-03 07:40:00,
2013-03-03 02:50:00,31.4,23.8,30.09,NE,47,3.0,6.0,73,0.00,OVC,,0.00,WeatherDisplay:10.37,2013-03-03 07:50:00,
2013-03-03 03:01:00,31.4,24.1,30.09,NE,43,2.0,12.0,74,0.00,OVC,,0.00,WeatherDisplay:10.37,2013-03-03 08:01:00,
2013-03-03 03:10:00,31.4,24.1,30.09,NE,34,1.0,7.0,74,0.00,OVC,,0.00,WeatherDisplay:10.37,2013-03-03 08:10:00,
2013-03-03 03:20:00,31.4,24.4,30.09,NE,45,1.0,4.0,75,0.00,OVC,,0.00,WeatherDisplay:10.37,2013-03-03 08:20:00,
2013-03-03 03:31:00,31.4,24.4,30.09,NE,56,3.0,6.0,75,0.00,OVC,,0.00,WeatherDisplay:10.37,2013-03-03 08:31:00,
2013-03-03 03:40:00,31.4,24.1,30.08,NE,52,2.0,7.0,74,0.00,OVC,,0.00,WeatherDisplay:10.37,2013-03-03 08:40:00,
2013-03-03 03:50:00,31.4,23.7,30.09,NE,52,6.0,12.0,73,0.00,OVC,,0.00,WeatherDisplay:10.37,2013-03-03 08:50:00,
2013-03-03 04:01:00,31.4,24.4,30.08,NE,42,1.0,8.0,75,0.00,OVC,,0.00,WeatherDisplay:10.37,2013-03-03 09:01:00,
2013-03-03 04:10:00,31.4,24.4,30.08,NE,48,5.0,7.0,75,0.00,OVC,,0.00,WeatherDisplay:10.37,2013-03-03 09:10:00,
2013-03-03 04:20:00,31.3,24.0,30.08,NNE,27,2.0,13.0,74,0.00,OVC,,0.00,WeatherDisplay:10.37,2013-03-03 09:20:00,
2013-03-03 04:31:00,31.2,23.9,30.08,NE,48,5.0,10.0,74,0.00,OVC,,0.00,WeatherDisplay:10.37,2013-03-03 09:31:00,
2013-03-03 04:40:00,31.2,24.2,30.08,NE,44,5.0,12.0,75,0.00,OVC,,0.00,WeatherDisplay:10.37,2013-03-03 09:40:00,
2013-03-03 04:50:00,31.1,24.1,30.08,NE,34,3.0,12.0,75,0.00,OVC,,0.00,WeatherDisplay:10.37,2013-03-03 09:50:00,
2013-03-03 05:01:00,31.0,24.3,30.08,NE,47,3.0,9.0,76,0.00,OVC,,0.00,WeatherDisplay:10.37,2013-03-03 10:01:00,
2013-03-03 05:10:00,31.0,24.0,30.08,NE,46,3.0,10.0,75,0.00,OVC,,0.00,WeatherDisplay:10.37,2013-03-03 10:10:00,
2013-03-03 05:20:00,31.0,24.0,30.08,NE,37,5.0,8.0,75,0.00,OVC,,0.00,WeatherDisplay:10.37,2013-03-03 10:20:00,
2013-03-03 05:31:00,30.9,24.2,30.08,NE,52,2.0,8.0,76,0.00,OVC,,0.00,WeatherDisplay:10.37,2013-03-03 10:31:00,
2013-03-03 05:40:00,30.9,23.9,30.08,NE,49,2.0,7.0,75,0.00,OVC,,0.00,WeatherDisplay:10.37,2013-03-03 10:40:00,
2013-03-03 05:50:00,30.9,24.2,30.08,NE,44,3.0,12.0,76,0.00,-SN,,0.00,WeatherDisplay:10.37,2013-03-03 10:50:00,
2013-03-03 06:01:00,30.9,23.9,30.08,NE,45,5.0,12.0,75,0.00,-SN,,0.00,WeatherDisplay:10.37,2013-03-03 11:01:00,
2013-03-03 06:10:00,30.8,23.8,30.09,NE,45,5.0,8.0,75,0.00,OVC,,0.00,WeatherDisplay:10.37,2013-03-03 11:10:00,
2013-03-03 06:20:00,30.8,23.4,30.08,NE,45,5.0,12.0,74,0.00,OVC,,0.00,WeatherDisplay:10.37,2013-03-03 11:20:00,
2013-03-03 06:31:00,30.7,23.7,30.09,NE,55,7.0,12.0,75,0.00,OVC,,0.00,WeatherDisplay:10.37,2013-03-03 11:31:00,
2013-03-03 06:40:00,30.7,23.1,30.09,NE,44,3.0,12.0,73,0.00,OVC,,0.00,WeatherDisplay:10.37,2013-03-03 11:40:00,
2013-03-03 06:51:00,30.6,23.0,30.09,NE,50,6.0,12.0,73,0.00,OVC,,0.00,WeatherDisplay:10.37,2013-03-03 11:51:00,
2013-03-03 07:01:00,30.6,23.0,30.09,NE,47,5.0,8.0,73,0.00,OVC,,0.00,WeatherDisplay:10.37,2013-03-03 12:01:00,
2013-03-03 07:10:00,30.6,23.0,30.10,NE,48,5.0,7.0,73,0.00,OVC,,0.00,WeatherDisplay:10.37,2013-03-03 12:10:00,
2013-03-03 07:20:00,30.6,23.3,30.10,NE,45,6.0,12.0,74,0.00,OVC,,0.00,WeatherDisplay:10.37,2013-03-03 12:20:00,
2013-03-03 07:31:00,30.3,23.7,30.10,NE,50,5.0,12.0,76,0.00,OVC,,0.00,WeatherDisplay:10.37,2013-03-03 12:31:00,
2013-03-03 07:40:00,30.2,23.9,30.11,NE,42,7.0,12.0,77,0.00,OVC,,0.00,WeatherDisplay:10.37,2013-03-03 12:40:00,
2013-03-03 07:50:00,30.1,23.4,30.11,NNE,33,5.0,8.0,76,0.00,OVC,,0.00,WeatherDisplay:10.37,2013-03-03 12:50:00,
2013-03-03 08:01:00,30.0,23.4,30.11,NNE,29,3.0,8.0,76,0.00,OVC,,0.00,WeatherDisplay:10.37,2013-03-03 13:01:00,
2013-03-03 08:10:00,30.0,23.4,30.11,NE,38,3.0,12.0,76,0.00,OVC,,0.00,WeatherDisplay:10.37,2013-03-03 13:10:00,
2013-03-03 08:20:00,30.0,23.7,30.12,NNE,26,2.0,6.0,77,0.00,OVC,,0.00,WeatherDisplay:10.37,2013-03-03 13:20:00,
2013-03-03 08:31:00,30.1,23.1,30.12,NNE,31,2.0,9.0,75,0.00,OVC,,0.00,WeatherDisplay:10.37,2013-03-03 13:31:00,
2013-03-03 08:41:00,30.1,23.4,30.12,NE,40,5.0,10.0,76,0.00,OVC,,0.00,WeatherDisplay:10.37,2013-03-03 13:41:00,
2013-03-03 08:50:00,30.1,23.1,30.12,NNE,31,1.0,8.0,75,0.00,OVC,,0.00,WeatherDisplay:10.37,2013-03-03 13:50:00,
2013-03-03 09:01:00,30.1,22.2,30.13,NE,43,3.0,18.0,72,0.00,OVC,,0.00,WeatherDisplay:10.37,2013-03-03 14:01:00,
2013-03-03 09:10:00,30.1,22.5,30.13,NE,39,3.0,14.0,73,0.00,OVC,,0.00,WeatherDisplay:10.37,2013-03-03 14:10:00,
2013-03-03 09:20:00,30.3,22.0,30.13,NE,34,7.0,14.0,71,0.00,OVC,,0.00,WeatherDisplay:10.37,2013-03-03 14:20:00,
2013-03-03 09:31:00,30.7,22.7,30.13,NNE,28,5.0,10.0,72,0.00,OVC,,0.00,WeatherDisplay:10.37,2013-03-03 14:31:00,
2013-03-03 09:40:00,30.8,21.8,30.13,NNE,12,3.0,12.0,69,0.00,OVC,,0.00,WeatherDisplay:10.37,2013-03-03 14:40:00,
2013-03-03 09:50:00,30.6,22.0,30.14,NE,34,7.0,12.0,70,0.00,OVC,,0.00,WeatherDisplay:10.37,2013-03-03 14:50:00,
2013-03-03 10:01:00,30.4,22.1,30.14,NE,49,6.0,13.0,71,0.00,OVC,,0.00,WeatherDisplay:10.37,2013-03-03 15:01:00,
2013-03-03 10:10:00,30.6,23.0,30.14,NE,36,5.0,12.0,73,0.00,BKN,,0.00,WeatherDisplay:10.37,2013-03-03 15:10:00,
2013-03-03 10:20:00,30.7,22.7,30.14,NNE,33,1.0,12.0,72,0.00,BKN,,0.00,WeatherDisplay:10.37,2013-03-03 15:20:00,
2013-03-03 10:31:00,31.3,22.6,30.13,NE,46,5.0,10.0,70,0.00,BKN,,0.00,WeatherDisplay:10.37,2013-03-03 15:31:00,
2013-03-03 10:40:00,31.5,21.8,30.13,NE,46,6.0,12.0,67,0.00,OVC,,0.00,WeatherDisplay:10.37,2013-03-03 15:40:00,
2013-03-03 10:51:00,31.4,22.1,30.13,NE,35,8.0,13.0,68,0.00,OVC,,0.00,WeatherDisplay:10.37,2013-03-03 15:51:00,
2013-03-03 11:01:00,31.5,22.5,30.13,NE,43,3.0,12.0,69,0.00,OVC,,0.00,WeatherDisplay:10.37,2013-03-03 16:01:00,
2013-03-03 11:10:00,32.3,23.6,30.13,NE,40,6.0,8.0,70,0.00,OVC,,0.00,WeatherDisplay:10.37,2013-03-03 16:10:00,
2013-03-03 11:20:00,32.4,22.7,30.14,NE,42,6.0,10.0,67,0.00,OVC,,0.00,WeatherDisplay:10.37,2013-03-03 16:20:00,
2013-03-03 11:31:00,32.5,22.8,30.14,NE,47,6.0,12.0,67,0.00,OVC,,0.00,WeatherDisplay:10.37,2013-03-03 16:31:00,
2013-03-03 11:40:00,32.6,22.1,30.13,NE,46,9.0,14.0,65,0.00,OVC,,0.00,WeatherDisplay:10.37,2013-03-03 16:40:00,
2013-03-03 11:50:00,32.6,22.5,30.14,NE,42,6.0,10.0,66,0.00,OVC,,0.00,WeatherDisplay:10.37,2013-03-03 16:50:00,
2013-03-03 12:01:00,32.6,22.9,30.14,NE,39,3.0,9.0,67,0.00,OVC,,0.00,WeatherDisplay:10.37,2013-03-03 17:01:00,
2013-03-03 12:10:00,32.6,22.1,30.14,NE,48,5.0,12.0,65,0.00,OVC,,0.00,WeatherDisplay:10.37,2013-03-03 17:10:00,
2013-03-03 12:20:00,32.9,22.7,30.14,NE,48,5.0,12.0,66,0.00,OVC,,0.00,WeatherDisplay:10.37,2013-03-03 17:20:00,
2013-03-03 12:31:00,32.9,22.8,30.13,NE,49,5.0,10.0,66,0.00,OVC,,0.00,WeatherDisplay:10.37,2013-03-03 17:31:00,
2013-03-03 12:40:00,32.9,23.1,30.13,NE,42,6.0,13.0,67,0.00,OVC,,0.00,WeatherDisplay:10.37,2013-03-03 17:40:00,
2013-03-03 12:50:00,33.2,23.1,30.13,NE,46,5.0,12.0,66,0.00,OVC,,0.00,WeatherDisplay:10.37,2013-03-03 17:50:00,
2013-03-03 13:01:00,33.4,22.1,30.13,NE,40,8.0,20.0,63,0.00,OVC,,0.00,WeatherDisplay:10.37,2013-03-03 18:01:00,
2013-03-03 13:10:00,33.8,22.5,30.13,NNE,33,8.0,15.0,63,0.00,OVC,,0.00,WeatherDisplay:10.37,2013-03-03 18:10:00,
2013-03-03 13:20:00,33.5,22.6,30.12,NE,48,12.0,20.0,64,0.00,OVC,,0.00,WeatherDisplay:10.37,2013-03-03 18:20:00,
2013-03-03 13:31:00,33.7,22.4,30.12,NE,43,5.0,15.0,63,0.00,OVC,,0.00,WeatherDisplay:10.37,2013-03-03 18:31:00,
2013-03-03 13:40:00,34.1,22.0,30.12,NE,55,5.0,10.0,61,0.00,OVC,,0.00,WeatherDisplay:10.37,2013-03-03 18:40:00,
2013-03-03 13:50:00,34.1,22.0,30.12,NE,44,3.0,18.0,61,0.00,OVC,,0.00,WeatherDisplay:10.37,2013-03-03 18:50:00,
2013-03-03 14:01:00,33.9,22.2,30.11,NE,49,5.0,12.0,62,0.00,OVC,,0.00,WeatherDisplay:10.37,2013-03-03 19:01:00,
2013-03-03 14:10:00,34.4,22.7,30.12,ENE,64,10.0,16.0,62,0.00,OVC,,0.00,WeatherDisplay:10.37,2013-03-03 19:10:00,
2013-03-03 14:20:00,34.9,22.0,30.11,NE,53,6.0,12.0,59,0.00,OVC,,0.00,WeatherDisplay:10.37,2013-03-03 19:20:00,
2013-03-03 14:31:00,35.2,21.5,30.11,NE,44,7.0,18.0,57,0.00,OVC,,0.00,WeatherDisplay:10.37,2013-03-03 19:31:00,
2013-03-03 14:40:00,36.1,22.4,30.11,NE,46,8.0,12.0,57,0.00,OVC,,0.00,WeatherDisplay:10.37,2013-03-03 19:40:00,
2013-03-03 14:50:00,36.2,22.4,30.11,NE,39,7.0,13.0,57,0.00,OVC,,0.00,WeatherDisplay:10.37,2013-03-03 19:50:00,
2013-03-03 15:01:00,36.1,22.3,30.11,NE,37,6.0,13.0,57,0.00,OVC,,0.00,WeatherDisplay:10.37,2013-03-03 20:01:00,
2013-03-03 15:10:00,36.3,21.2,30.12,NE,45,5.0,16.0,54,0.00,OVC,,0.00,WeatherDisplay:10.37,2013-03-03 20:10:00,
2013-03-03 15:20:00,36.4,22.2,30.11,NE,48,2.0,13.0,56,0.00,OVC,,0.00,WeatherDisplay:10.37,2013-03-03 20:20:00,
2013-03-03 15:31:00,36.9,22.7,30.11,NE,49,3.0,12.0,56,0.00,OVC,,0.00,WeatherDisplay:10.37,2013-03-03 20:31:00,
2013-03-03 15:40:00,37.7,22.9,30.11,NE,50,1.0,12.0,55,0.00,OVC,,0.00,WeatherDisplay:10.37,2013-03-03 20:40:00,
2013-03-03 15:50:00,37.2,22.1,30.11,NE,44,2.0,13.0,54,0.00,OVC,,0.00,WeatherDisplay:10.37,2013-03-03 20:50:00,
2013-03-03 16:01:00,37.7,22.1,30.10,NE,55,6.0,12.0,53,0.00,OVC,,0.00,WeatherDisplay:10.37,2013-03-03 21:01:00,
2013-03-03 16:11:00,38.3,22.2,30.11,North,6,0.0,7.0,52,0.00,SCT,,0.00,WeatherDisplay:10.37,2013-03-03 21:11:00,
2013-03-03 16:20:00,38.5,21.4,30.10,NNE,32,6.0,12.0,50,0.00,SCT,,0.00,WeatherDisplay:10.37,2013-03-03 21:20:00,
2013-03-03 16:30:00,38.6,21.5,30.11,WNW,285,1.0,9.0,50,0.00,SCT,,0.00,WeatherDisplay:10.37,2013-03-03 21:30:00,
2013-03-03 16:40:00,38.5,20.5,30.11,NE,35,2.0,12.0,48,0.00,SCT,,0.00,WeatherDisplay:10.37,2013-03-03 21:40:00,
2013-03-03 16:50:00,38.6,20.6,30.11,NE,47,1.0,9.0,48,0.00,CLR,,0.00,WeatherDisplay:10.37,2013-03-03 21:50:00,
2013-03-03 17:00:00,39.2,21.1,30.10,NE,51,6.0,12.0,48,0.00,CLR,,0.00,WeatherDisplay:10.37,2013-03-03 22:00:00,
2013-03-03 17:10:00,38.9,20.4,30.10,NE,36,6.0,12.0,47,0.00,CLR,,0.00,WeatherDisplay:10.37,2013-03-03 22:10:00,
2013-03-03 17:19:00,38.7,21.2,30.10,NE,50,5.0,13.0,49,0.00,CLR,,0.00,WeatherDisplay:10.37,2013-03-03 22:19:00,
2013-03-03 17:30:00,38.9,19.9,30.10,NNE,32,3.0,13.0,46,0.00,CLR,,0.00,WeatherDisplay:10.37,2013-03-03 22:30:00,
2013-03-03 17:39:00,38.8,19.8,30.11,NE,37,3.0,8.0,46,0.00,CLR,,0.00,WeatherDisplay:10.37,2013-03-03 22:39:00,
2013-03-03 17:49:00,38.5,19.5,30.11,NE,35,2.0,7.0,46,0.00,CLR,,0.00,WeatherDisplay:10.37,2013-03-03 22:49:00,
2013-03-03 18:00:00,38.0,20.5,30.11,NE,47,0.0,8.0,49,0.00,CLR,,0.00,WeatherDisplay:10.37,2013-03-03 23:00:00,
2013-03-03 18:09:00,37.7,20.7,30.11,NE,39,1.0,4.0,50,0.00,CLR,,0.00,WeatherDisplay:10.37,2013-03-03 23:09:00,
2013-03-03 18:19:00,37.1,21.6,30.11,NE,42,0.0,3.0,53,0.00,CLR,,0.00,WeatherDisplay:10.37,2013-03-03 23:19:00,
2013-03-03 18:30:00,36.3,20.7,30.11,NE,34,0.0,2.0,53,0.00,CLR,,0.00,WeatherDisplay:10.37,2013-03-03 23:30:00,
2013-03-03 18:40:00,35.5,20.5,30.12,NE,34,0.0,1.0,54,0.00,CLR,,0.00,WeatherDisplay:10.37,2013-03-03 23:40:00,
2013-03-03 18:50:00,34.8,20.7,30.12,NE,34,0.0,1.0,56,0.00,CLR,,0.00,WeatherDisplay:10.37,2013-03-03 23:50:00,
2013-03-03 19:01:00,34.1,20.9,30.12,NE,34,0.0,0.0,58,0.00,CLR,,0.00,WeatherDisplay:10.37,2013-03-04 00:01:00,
2013-03-03 19:10:00,33.4,20.6,30.12,NE,34,0.0,0.0,59,0.00,CLR,,0.00,WeatherDisplay:10.37,2013-03-04 00:10:00,
2013-03-03 19:20:00,32.7,20.0,30.12,NE,34,0.0,0.0,59,0.00,CLR,,0.00,WeatherDisplay:10.37,2013-03-04 00:20:00,
2013-03-03 19:31:00,32.1,21.3,30.12,NE,34,0.0,0.0,64,0.00,CLR,,0.00,WeatherDisplay:10.37,2013-03-04 00:31:00,
2013-03-03 19:40:00,31.6,21.1,30.12,NE,34,0.0,0.0,65,0.00,CLR,,0.00,WeatherDisplay:10.37,2013-03-04 00:40:00,
2013-03-03 19:50:00,30.9,20.9,30.12,NE,34,0.0,0.0,66,0.00,CLR,,0.00,WeatherDisplay:10.37,2013-03-04 00:50:00,
2013-03-03 20:01:00,30.5,22.2,30.13,NE,34,0.0,0.0,71,0.00,CLR,,0.00,WeatherDisplay:10.37,2013-03-04 01:01:00,
2013-03-03 20:10:00,30.0,21.8,30.13,NE,34,0.0,1.0,71,0.00,CLR,,0.00,WeatherDisplay:10.37,2013-03-04 01:10:00,
2013-03-03 20:20:00,29.6,22.3,30.13,NE,34,0.0,1.0,74,0.00,CLR,,0.00,WeatherDisplay:10.37,2013-03-04 01:20:00,
2013-03-03 20:31:00,29.2,21.9,30.13,NE,34,0.0,1.0,74,0.00,CLR,,0.00,WeatherDisplay:10.37,2013-03-04 01:31:00,
2013-03-03 20:40:00,28.9,22.0,30.14,NE,34,0.0,0.0,75,0.00,CLR,,0.00,WeatherDisplay:10.37,2013-03-04 01:40:00,
2013-03-03 20:50:00,28.8,22.2,30.14,NE,34,0.0,1.0,76,0.00,CLR,,0.00,WeatherDisplay:10.37,2013-03-04 01:50:00,
2013-03-03 21:01:00,28.6,21.6,30.14,NE,34,0.0,1.0,75,0.00,CLR,,0.00,WeatherDisplay:10.37,2013-03-04 02:01:00,
2013-03-03 21:10:00,28.4,21.2,30.14,NE,34,0.0,0.0,74,0.00,CLR,,0.00,WeatherDisplay:10.37,2013-03-04 02:10:00,
2013-03-03 21:20:00,28.1,21.2,30.14,NE,34,0.0,1.0,75,0.00,CLR,,0.00,WeatherDisplay:10.37,2013-03-04 02:20:00,
2013-03-03 21:31:00,27.8,21.0,30.14,NE,34,0.0,0.0,75,0.00,CLR,,0.00,WeatherDisplay:10.37,2013-03-04 02:31:00,
2013-03-03 21:40:00,27.7,21.4,30.14,NE,34,0.0,0.0,77,0.00,SCT,,0.00,WeatherDisplay:10.37,2013-03-04 02:40:00,
2013-03-03 21:50:00,27.5,21.6,30.14,NE,34,0.0,0.0,78,0.00,CLR,,0.00,WeatherDisplay:10.37,2013-03-04 02:50:00,
2013-03-03 22:01:00,27.4,21.4,30.14,NE,34,0.0,0.0,78,0.00,CLR,,0.00,WeatherDisplay:10.37,2013-03-04 03:01:00,
2013-03-03 22:10:00,27.2,21.2,30.14,NE,34,0.0,0.0,78,0.00,CLR,,0.00,WeatherDisplay:10.37,2013-03-04 03:10:00,
2013-03-03 22:20:00,26.9,21.0,30.13,NE,34,0.0,0.0,78,0.00,CLR,,0.00,WeatherDisplay:10.37,2013-03-04 03:20:00,
2013-03-03 22:31:00,26.9,21.6,30.14,NE,34,0.0,1.0,80,0.00,CLR,,0.00,WeatherDisplay:10.37,2013-03-04 03:31:00,
2013-03-03 22:40:00,26.7,21.7,30.13,NE,34,0.0,0.0,81,0.00,CLR,,0.00,WeatherDisplay:10.37,2013-03-04 03:40:00,
2013-03-03 22:50:00,26.5,21.7,30.13,NE,34,0.0,0.0,82,0.00,CLR,,0.00,WeatherDisplay:10.37,2013-03-04 03:50:00,
2013-03-03 23:01:00,26.3,21.3,30.13,NE,34,0.0,0.0,81,0.00,CLR,,0.00,WeatherDisplay:10.37,2013-03-04 04:01:00,
2013-03-03 23:10:00,26.0,21.3,30.13,NE,34,0.0,0.0,82,0.00,CLR,,0.00,WeatherDisplay:10.37,2013-03-04 04:10:00,
2013-03-03 23:20:00,26.0,21.5,30.13,NE,34,0.0,0.0,83,0.00,CLR,,0.00,WeatherDisplay:10.37,2013-03-04 04:20:00,
2013-03-03 23:31:00,25.9,21.7,30.13,NE,34,0.0,1.0,84,0.00,CLR,,0.00,WeatherDisplay:10.37,2013-03-04 04:31:00,
2013-03-03 23:40:00,25.8,21.3,30.14,NE,34,0.0,0.0,83,0.00,CLR,,0.00,WeatherDisplay:10.37,2013-03-04 04:40:00,
2013-03-03 23:50:00,25.7,21.3,30.14,NE,34,0.0,0.0,83,0.00,CLR,,0.00,WeatherDisplay:10.37,2013-03-04 04:50:00,